SDM6574 UNKL-ULLI

Flight info

Callsign SDM6574
Flight time N/A
Altitude 34000
Route BASEL B938 SURIP T631 SOTIM/K0832F360 T631 NWK M59 SORLI P989 NETLU T756 ODNUS L870 ROMUM T816 AMDEN P979 BEPOL
Aircraft A320/M-SDE3FGHIRWY/LB1

Departure

Time N/A
Airport Krasnoyarsk International Airport (UNKL)

Arrival

Time 2026-05-01 12:51
Airport Pulkovo Airport (ULLI)
Time Latitude Longitude Altitude Speed Heading
2026-05-01 12:32 60.10267 32.72325 18400 ft 327 kts 260°
2026-05-01 12:32 60.08927 32.63724 17749 ft 323 kts 260°
2026-05-01 12:32 60.08261 32.59437 17415 ft 321 kts 260°
2026-05-01 12:33 60.07596 32.55169 17106 ft 320 kts 260°
2026-05-01 12:33 60.06933 32.50928 16791 ft 318 kts 260°
2026-05-01 12:33 60.06273 32.46721 16481 ft 316 kts 259°
2026-05-01 12:33 60.05617 32.42534 16168 ft 314 kts 259°
2026-05-01 12:34 60.04964 32.38372 15861 ft 313 kts 259°
2026-05-01 12:34 60.04311 32.34222 15535 ft 312 kts 259°
2026-05-01 12:34 60.03660 32.30095 15241 ft 310 kts 259°
2026-05-01 12:34 60.03008 32.25980 14949 ft 309 kts 259°
2026-05-01 12:35 60.02358 32.21899 14652 ft 307 kts 259°
2026-05-01 12:35 60.01710 32.17837 14368 ft 306 kts 259°
2026-05-01 12:35 60.01062 32.13787 14075 ft 305 kts 258°
2026-05-01 12:35 60.00416 32.09751 13763 ft 304 kts 258°
2026-05-01 12:36 59.99781 32.05797 13441 ft 302 kts 258°
2026-05-01 12:36 59.99141 32.01829 13146 ft 299 kts 258°
2026-05-01 12:36 59.98504 31.97887 12852 ft 297 kts 258°
2026-05-01 12:36 59.97869 31.93975 12564 ft 295 kts 258°
2026-05-01 12:37 59.97238 31.90098 12276 ft 293 kts 258°
2026-05-01 12:37 59.96610 31.86239 11990 ft 291 kts 257°
2026-05-01 12:37 59.95987 31.82394 11711 ft 290 kts 257°
2026-05-01 12:37 59.95368 31.78577 11435 ft 288 kts 257°
2026-05-01 12:38 59.94752 31.74784 11163 ft 287 kts 257°
2026-05-01 12:38 59.94136 31.71005 10874 ft 285 kts 257°
2026-05-01 12:38 59.93521 31.67249 10609 ft 284 kts 257°
2026-05-01 12:38 59.92908 31.63529 10340 ft 280 kts 257°
2026-05-01 12:39 59.92304 31.59865 10074 ft 277 kts 257°
2026-05-01 12:39 59.91704 31.56238 9764 ft 273 kts 256°
2026-05-01 12:39 59.91117 31.52710 9471 ft 270 kts 256°
2026-05-01 12:39 59.90525 31.49133 9194 ft 267 kts 256°
2026-05-01 12:40 59.89953 31.45682 8939 ft 264 kts 256°
2026-05-01 12:40 59.89380 31.42225 8674 ft 263 kts 256°
2026-05-01 12:40 59.88807 31.38784 8410 ft 261 kts 256°
2026-05-01 12:40 59.88236 31.35354 8159 ft 260 kts 256°
2026-05-01 12:41 59.87668 31.31947 7899 ft 259 kts 255°
2026-05-01 12:41 59.87103 31.28563 7649 ft 257 kts 255°
2026-05-01 12:41 59.86537 31.25194 7390 ft 256 kts 255°
2026-05-01 12:41 59.85973 31.21847 7144 ft 254 kts 255°
2026-05-01 12:42 59.85410 31.18517 6896 ft 253 kts 255°
2026-05-01 12:42 59.84851 31.15208 6649 ft 252 kts 255°
2026-05-01 12:42 59.84298 31.11936 6395 ft 250 kts 254°
2026-05-01 12:42 59.83742 31.08656 6127 ft 249 kts 254°
2026-05-01 12:43 59.83199 31.05449 5860 ft 246 kts 253°
2026-05-01 12:43 59.82652 31.02231 5595 ft 244 kts 253°
2026-05-01 12:43 59.82110 30.99056 5355 ft 241 kts 253°
2026-05-01 12:43 59.81573 30.95913 5090 ft 239 kts 252°
2026-05-01 12:44 59.81041 30.92799 4827 ft 237 kts 252°
2026-05-01 12:44 59.80512 30.89706 4565 ft 236 kts 252°
2026-05-01 12:44 59.79461 30.83561 4034 ft 234 kts 252°
2026-05-01 12:45 59.78407 30.77452 3503 ft 234 kts 252°
2026-05-01 12:45 59.77886 30.74425 3249 ft 232 kts 252°
2026-05-01 12:45 59.77365 30.71422 2991 ft 228 kts 252°
2026-05-01 12:46 59.76851 30.68466 2731 ft 226 kts 252°
2026-05-01 12:46 59.76341 30.65541 2563 ft 221 kts 252°
2026-05-01 12:46 59.75843 30.62686 2526 ft 220 kts 252°
2026-05-01 12:46 59.75344 30.59819 2531 ft 220 kts 252°
2026-05-01 12:47 59.74963 30.56972 2518 ft 207 kts 267°
2026-05-01 12:47 59.75122 30.54237 2528 ft 195 kts 287°
2026-05-01 12:47 59.75502 30.51738 2484 ft 184 kts 287°
2026-05-01 12:47 59.75861 30.49381 2302 ft 171 kts 287°
2026-05-01 12:48 59.76189 30.47213 2091 ft 159 kts 287°
2026-05-01 12:48 59.76495 30.45183 1894 ft 146 kts 287°
2026-05-01 12:48 59.76775 30.43326 1667 ft 135 kts 287°
2026-05-01 12:48 59.77034 30.41606 1488 ft 130 kts 287°
2026-05-01 12:49 59.77291 30.39899 1311 ft 127 kts 287°
2026-05-01 12:49 59.77543 30.38223 1141 ft 127 kts 286°
2026-05-01 12:49 59.77794 30.36555 979 ft 126 kts 286°
2026-05-01 12:49 59.78045 30.34878 808 ft 127 kts 285°
2026-05-01 12:50 59.78299 30.33187 633 ft 129 kts 285°
2026-05-01 12:50 59.78552 30.31494 466 ft 129 kts 286°
2026-05-01 12:50 59.78807 30.29792 301 ft 128 kts 285°
2026-05-01 12:50 59.79057 30.28105 106 ft 127 kts 285°
2026-05-01 12:51 59.79273 30.26607 81 ft 86 kts 286°
2026-05-01 12:51 59.79368 30.25969 84 ft 30 kts 287°
2026-05-01 12:51 59.79465 30.25496 84 ft 10 kts 13°
2026-05-01 12:52 59.79497 30.25597 82 ft 9 kts 77°
2026-05-01 12:52 59.79519 30.25781 81 ft 1 kts 74°
2026-05-01 12:54 59.79520 30.25785 80 ft 3 kts 74°
2026-05-01 12:54 59.79539 30.25921 82 ft 12 kts 74°
2026-05-01 12:55 59.79666 30.26051 78 ft 10 kts 26°
2026-05-01 12:55 59.79728 30.26104 77 ft 9 kts 17°
2026-05-01 12:55 59.79784 30.26134 78 ft 5 kts 15°
2026-05-01 12:56 59.79817 30.26152 82 ft 5 kts 15°
2026-05-01 12:56 59.79845 30.26167 80 ft 4 kts 15°
2026-05-01 12:56 59.79868 30.26180 80 ft 3 kts 15°
2026-05-01 12:56 59.79884 30.26175 79 ft 2 kts 340°
2026-05-01 12:57 59.79899 30.26139 79 ft 4 kts 299°
2026-05-01 12:57 59.79913 30.26051 81 ft 4 kts 285°
2026-05-01 12:57 59.79920 30.26009 79 ft 3 kts 286°
2026-05-01 12:58 59.79920 30.26007 79 ft 0 kts 286°